SCP
0 0 0 0 0 0 0 0 -0 -0 -0 -0 -0 0 0 0 0 0 0 0 0 0 0 0 0 0 0 0 0 0 0 0 0 0 0 0 0 0 0 0 0 0 0 0 -0 -0 -0 0 0
0 0 0 0 0 0 0 0 -0 -0 -0 -0 -0 0 0 0 0 0 0 0 0 0 0 0 0 0 0 0 0 0 0 0 0 0 0 0 0 0 0 0 0 0 0 0 0 -0 0 0 0
0 0 0 0 0 0 0 0 0 -0 -0 -0 -0 -0 0 0 0 0 0 0 0 0 0 0 0 0 0 0 0 0 0 0 0 0 0 0 0 0 0 0 0 0 0 0 0 0 0 0 0
0 0 0 0 0 0 0 0 -0 -0 -0 -0 -0 -0 0 0 0 0 0 0 0 0 0 0 0 0 0 0 0 0 0 0 0 0 0 0 0 0 0 0 0 0 0 0 0 0 0 0 0
0 0 0 0 0 0 0 -0 -0 -0 -0 -0 -0 0 0 0 0 0 0 0 0 0 0 0 0 0 0 -0 -0 0 0 0 0 0 0 0 0 0 0 0 0 0 0 0 0 0 0 0 0
0 0 0 0 0 0 0 -0 -0 -0 -0 -0 -0 0 0 0 0 0 0 0 0 0 -0 -0 0 0 0 -0 -0 -0 0 0 0 0 0 0 0 0 0 0 0 0 0 0 0 0 0 0 0
0 0 0 0 0 0 0 -0 -0 -0 -0 -0 -0 -0 0 0 0 0 0 0 0 -0 -0 -0 -0 0 0 -0 -0 -0 -0 0 0 0 0 0 0 0 0 0 0 0 0 0 0 0 0 0 0
0 0 0 0 0 0 0 0 0 -0 -0 -0 -0 -0 0 0 0 0 0 0 0 -0 -0 -0 -0 0 0 0 -0 -0 -0 0 0 0 0 0 0 0 0 0 0 0 0 0 0 0 0 0 0
0 0 0 0 0 0 0 0 0 0 0 -0 -0 -0 0 0 0 0 0 0 0 0 0 0 0 0 0 0 0 0 0 0 0 0 0 0 0 0 0 0 0 0 0 0 0 0 0 0 0
0 0 0 0 0 0 0 0 0 0 0 0 0 0 0 0 0 0 0 0 0 0 0 0 0 0 0 0 0 0 0 0 0 0 0 0 0 0 0 0 0 0 0 0 0 0 0 0 0
0 0 0 0 0 0 0 0 0 0 0 0 0 0 0 0 0 0 0 0 0 0 0 0 0 0 0 0 0 0 0 0 0 0 0 0 0 0 0 0 0 0 0 0 0 0 0 0 0
0 0 0 0 0 0 0 0 0 0 0 0 0 0 0 0 0 0 0 0 0 0 0 0 0 0 0 0 0 0 0 0 0 0 0 0 0 0 0 0 0 0 0 0 0 0 0 0 0
0 0 0 0 0 0 0 0 0 0 0 0 0 0 0 0 0 0 0 0 0 0 0 0 0 0 0 0 0 0 0 0 0 0 0 0 0 0 0 -0 -0 -0 0 0 0 0 0 0 0
0 0 0 0 0 0 0 0 0 0 0 0 0 0 0 0 0 0 0 0 0 0 0 0 0 0 0 0 0 0 0 0 0 0 0 0 0 0 -0 -0 -0 -0 -0 0 0 0 0 0 0
0 0 0 0 0 0 0 0 0 0 0 1 1 0 1 1 1 1 1 1 0 0 0 0 0 0 0 0 0 0 0 0 0 0 0 0 0 0 0 -0 -0 0 0 0 0 0 0 0 0
0 0 0 0 0 0 0 0 0 0 0 1 1 1 1 1 1 1 1 1 0 0 0 0 0 0 0 1 1 0 0 0 0 0 0 0 0 0 0 0 0 0 0 0 0 0 0 0 0
0 0 0 0 0 0 0 0 0 0 0 1 1 1 1 1 1 1 1 1 1 0 0 0 0 0 0 1 1 1 1 1 1 0 0 0 0 0 0 0 0 0 0 0 0 0 0 0 0
0 0 0 0 0 0 0 0 0 0 0 1 1 1 1 1 1 1 1 1 1 1 1 1 1 1 1 1 1 1 1 1 1 1 1 0 0 0 0 0 0 0 0 0 0 0 0 0 0
0 0 0 0 0 0 0 0 0 1 1 1 1 1 1 1 1 1 1 1 1 1 1 1 1 1 1 1 2 2 2 2 2 1 1 1 0 0 0 0 0 0 0 0 0 0 0 0 0
0 0 0 0 0 0 0 0 0 1 1 1 1 1 1 1 1 1 1 1 1 1 1 1 1 1 1 2 2 2 2 2 2 1 1 1 1 0 0 0 0 0 0 0 0 0 0 0 0
0 0 0 0 0 0 0 0 0 1 1 1 1 1 1 1 1 1 1 1 1 1 1 1 1 2 2 2 2 2 2 2 2 1 1 1 1 1 1 0 0 0 0 0 0 0 0 0 0
0 0 0 0 0 0 0 0 0 0 0 0 1 1 1 1 1 1 1 1 1 1 2 2 2 2 2 2 2 2 2 2 2 2 2 1 1 1 1 0 0 0 0 0 0 0 0 0 0
0 0 0 0 0 0 0 0 0 0 0 0 0 0 1 1 1 1 1 1 1 2 2 2 2 2 2 2 2 2 2 2 2 2 2 2 1 1 1 1 1 1 1 0 0 0 0 0 0
0 0 0 0 0 0 0 0 0 0 0 1 0 0 0 0 1 1 1 1 1 1 1 2 2 2 2 2 1 1 1 1 2 2 2 2 2 1 1 1 1 1 1 1 1 1 1 1 1
0 0 0 0 0 0 0 0 0 0 1 1 1 0 0 0 0 0 1 1 1 1 1 1 1 1 1 1 1 1 1 1 1 1 1 1 1 1 1 1 1 1 1 1 1 1 1 1 1
0 0 0 0 0 0 0 0 0 0 1 1 0 0 0 0 0 0 0 1 1 1 1 1 1 1 1 1 1 1 1 1 1 1 1 1 1 1 1 1 1 1 1 1 1 1 1 1 1
0 0 0 0 0 0 0 0 0 0 0 0 0 0 0 0 0 0 0 0 1 1 1 1 1 1 1 0 0 0 0 0 0 0 0 0 0 0 0 0 0 0 0 0 0 1 1 1 1
0 0 0 0 0 0 0 0 0 0 0 0 0 0 0 0 0 0 0 0 0 1 1 1 1 0 0 0 0 0 0 0 0 0 0 0 0 0 0 0 0 0 0 0 0 0 0 0 0
0 0 0 0 0 0 0 0 0 0 0 0 0 0 0 0 0 0 0 0 0 0 0 0 0 0 0 0 0 0 0 0 0 0 0 0 0 0 0 0 0 0 0 0 0 0 0 0 0
0 0 0 0 0 0 0 0 0 0 0 0 0 0 0 0 0 0 0 0 0 0 0 0 0 0 0 0 0 0 0 0 0 0 0 0 0 0 0 0 0 0 0 0 0 0 0 0 0
Wind_Speed
10 8 6 6 8 5 3 4 2 4 4 3 4 0 1 3 4 7 10 15 14 14 15 16 14 13 12 12 12 13 13 15 16 15 14 13 11 10 10 9 9 9 8 8 8 8 9 9 10
6 6 6 7 7 2 4 3 4 3 5 6 4 1 2 5 7 9 13 14 15 14 14 14 15 13 12 12 12 12 13 14 14 14 13 12 11 10 9 9 9 9 8 8 8 8 9 9 9
6 7 7 6 4 2 4 4 4 5 6 4 3 2 3 6 7 9 12 15 15 13 13 14 14 13 12 12 11 11 12 13 13 13 12 11 10 10 9 8 8 8 7 7 7 7 7 9 9
6 7 7 8 4 2 2 6 6 7 6 3 3 6 6 7 6 9 13 15 15 13 12 15 13 13 12 11 11 11 12 12 12 12 11 10 9 9 9 8 7 7 6 5 6 6 6 7 8
7 7 9 8 4 4 3 5 5 4 4 5 5 7 9 8 9 13 15 14 14 13 12 14 12 12 11 10 10 10 10 10 10 10 9 9 8 8 8 7 6 6 5 4 5 5 6 7 7
7 7 10 9 6 4 4 5 7 5 5 6 6 9 9 7 10 14 15 13 13 12 12 14 12 12 11 10 10 9 9 9 9 8 8 7 7 7 7 6 6 5 4 4 4 5 6 6 7
9 9 12 9 6 6 4 6 9 7 6 6 6 8 9 9 10 13 13 12 11 11 10 11 13 12 11 9 9 9 9 9 8 8 8 7 7 6 6 5 5 5 5 5 6 6 6 6 7
6 8 12 10 8 5 4 6 6 9 6 5 6 6 9 13 13 14 13 11 10 10 10 10 10 11 11 11 10 8 9 9 9 8 8 8 7 8 7 8 7 6 6 7 7 7 7 7 7
6 10 11 10 7 2 4 8 8 3 6 6 5 2 8 19 16 15 13 12 10 10 9 9 10 9 9 9 11 10 9 8 9 10 10 8 9 9 9 7 6 6 7 7 8 8 8 8 10
9 11 10 1 2 3 3 9 10 9 10 9 9 7 14 18 17 17 15 15 14 12 11 9 10 10 9 7 8 7 8 9 8 6 8 8 5 4 5 8 5 7 8 9 9 9 9 10 9
9 10 3 4 2 5 3 8 9 11 11 12 13 14 18 19 17 16 15 14 13 12 12 10 10 9 9 7 6 5 5 5 7 7 6 5 4 5 5 4 7 8 9 8 9 10 8 7 5
9 8 6 4 1 4 4 6 10 13 4 4 10 16 20 20 18 17 15 14 13 13 13 12 11 10 9 7 6 6 6 5 6 7 8 6 5 4 4 3 4 4 4 3 4 3 4 4 5
11 8 9 8 7 6 7 8 8 10 6 5 11 17 20 19 17 15 15 14 13 13 13 12 11 11 9 8 6 7 7 6 7 6 7 7 6 6 5 4 3 6 4 4 5 4 3 4 5
9 9 9 10 9 5 6 5 8 7 9 9 12 16 18 18 18 16 15 14 13 14 14 13 13 12 10 9 8 6 7 6 7 7 8 9 7 5 4 5 5 6 5 5 4 5 4 5 4
7 10 12 12 10 5 6 10 10 6 8 10 11 13 15 15 15 16 15 14 13 13 13 13 13 12 12 12 11 8 8 8 8 7 8 8 8 6 6 6 5 5 6 6 5 6 5 5 4
11 12 13 11 10 6 10 13 8 7 6 6 7 9 11 13 14 13 13 12 11 11 12 12 11 13 13 12 10 9 8 8 7 7 7 9 9 8 7 6 6 5 5 4 5 5 5 4 4
13 14 14 10 7 7 12 13 6 5 1 2 4 6 8 10 11 12 12 12 12 11 11 12 13 13 13 13 10 10 8 7 7 7 7 8 9 9 8 7 6 7 5 5 5 3 4 4 4
11 14 14 12 7 9 13 14 6 4 3 2 2 4 6 8 9 11 12 12 11 11 11 11 12 12 12 10 8 7 8 6 6 6 7 9 8 10 8 7 8 8 6 5 5 4 4 4 4
7 10 11 7 3 8 10 11 7 5 3 2 3 3 5 5 6 7 8 8 9 10 11 12 12 12 10 8 8 7 6 5 4 5 8 10 10 10 8 8 7 8 7 7 7 6 6 6 3
9 11 11 7 4 7 7 7 2 2 4 5 4 3 4 6 6 7 7 7 8 9 10 11 12 12 11 9 7 5 4 3 3 4 7 10 10 10 9 9 8 8 7 8 8 7 7 5 4
11 12 11 10 7 7 9 12 9 6 5 6 6 6 4 2 2 4 6 6 6 7 7 7 8 8 9 9 6 5 4 3 4 6 6 7 8 10 9 10 9 8 8 8 9 8 9 7 6
9 5 7 8 11 12 11 13 12 10 9 7 7 7 7 6 5 4 2 1 2 2 2 2 2 2 2 3 5 7 8 9 10 9 8 6 4 6 8 9 9 8 7 8 9 9 6 7 6
4 2 7 9 12 15 12 13 12 10 11 9 8 8 7 7 7 7 7 6 6 4 3 3 4 4 4 2 2 4 7 8 8 9 9 7 4 2 5 8 7 7 7 8 8 7 7 6 7
5 7 8 10 12 18 18 16 14 9 7 7 8 8 8 7 8 8 8 8 7 7 6 5 5 5 5 4 4 3 5 6 7 9 8 6 3 1 1 5 5 6 6 7 7 7 8 6 7
12 12 10 11 14 16 13 12 10 8 7 5 6 7 8 8 8 8 8 7 6 5 5 4 4 4 4 3 3 3 3 3 3 4 5 5 3 2 1 2 4 4 4 5 5 6 6 6 7
14 16 13 11 12 9 6 12 4 7 7 7 7 7 8 9 9 9 8 7 6 5 4 3 3 3 3 3 2 2 2 2 2 1 1 1 2 2 1 1 3 4 4 5 5 5 6 5 6
8 10 7 8 10 10 10 7 5 6 6 7 7 8 8 8 8 8 8 8 8 7 5 4 4 4 4 4 4 4 4 4 4 3 3 3 3 2 2 1 3 4 5 5 6 5 5 5 6
7 5 4 4 6 9 10 10 6 10 9 7 6 6 6 6 7 7 7 8 7 7 7 6 6 6 6 6 5 5 5 5 5 5 6 5 4 3 2 1 3 4 5 6 6 6 4 5 5
8 7 6 5 6 6 6 3 4 1 7 8 6 5 5 5 6 6 6 6 7 7 7 6 6 6 6 6 6 6 6 6 6 6 6 5 5 4 3 2 2 4 5 5 5 6 5 5 5
7 9 8 8 9 8 8 3 6 4 5 6 7 5 4 4 5 6 6 6 7 7 6 6 6 6 6 5 5 5 5 6 6 7 6 5 5 4 3 2 2 3 4 4 5 5 5 5 5
Wind_Direction
215 218 224 239 242 224 87 95 103 143 146 107 136 67 34 45 11 69 114 139 140 143 140 150 150 148 143 137 135 133 133 143 149 150 151 151 150 145 139 132 123 116 116 120 126 125 117 111 114
212 195 225 243 260 183 103 112 144 127 100 117 113 87 95 76 54 104 135 139 146 145 147 150 145 148 144 140 137 136 136 139 144 148 150 153 152 149 143 136 129 122 121 125 131 132 133 129 129
223 226 257 254 267 343 100 126 124 115 133 149 113 69 37 70 101 126 133 146 149 147 148 137 149 149 147 144 141 139 140 141 144 148 154 157 156 152 144 134 130 126 123 124 131 136 140 142 142
218 220 238 251 226 67 77 135 142 141 143 155 161 118 86 79 112 122 137 151 151 151 152 138 154 149 148 147 147 145 143 144 146 150 155 157 157 154 148 139 134 132 130 127 129 139 145 149 150
235 243 238 236 206 137 153 159 169 169 152 152 165 122 102 104 108 130 147 155 157 153 149 141 155 152 151 153 154 153 152 151 150 151 154 156 157 155 152 149 145 141 142 146 152 156 161 163 162
223 237 242 230 188 167 174 187 202 196 164 160 165 138 110 122 138 147 151 160 159 153 154 139 153 157 158 162 165 166 165 164 164 163 164 166 166 168 168 170 169 170 174 179 186 188 182 179 179
244 240 247 247 216 201 171 190 206 196 195 174 168 148 125 148 147 149 149 163 159 159 156 153 161 164 165 168 174 176 178 178 180 182 183 187 191 193 194 195 197 199 204 209 209 208 202 200 201
258 252 242 236 233 211 144 188 202 201 178 132 170 169 148 151 152 150 152 160 162 165 165 167 165 168 173 175 177 183 184 185 189 196 197 198 202 207 207 215 197 215 220 222 223 222 219 216 218
234 243 236 227 231 202 162 191 174 199 151 160 174 35 108 139 153 153 156 165 172 175 174 178 167 173 178 179 161 178 182 186 191 195 196 208 220 209 197 203 160 220 228 230 233 236 235 231 219
223 235 236 220 308 322 207 208 174 184 183 176 166 128 130 148 159 162 169 176 177 180 180 186 176 177 181 187 166 193 191 179 210 195 193 212 222 254 258 125 194 230 235 233 230 235 237 239 234
223 241 231 199 245 308 247 202 193 203 198 194 180 157 154 161 167 172 177 181 180 183 185 186 181 188 190 191 189 197 201 182 207 206 211 235 239 217 230 206 191 209 221 223 201 214 227 226 242
232 231 242 239 273 286 278 211 203 219 203 162 171 160 164 172 177 178 179 185 183 188 189 187 186 190 201 205 198 204 206 196 211 195 216 212 220 240 236 237 239 208 210 208 229 208 214 251 255
230 232 229 249 262 277 271 233 220 215 180 148 160 166 175 179 180 180 181 187 189 192 194 190 192 196 199 209 219 214 216 207 209 214 209 228 228 228 239 256 278 270 259 212 223 239 234 251 249
229 244 244 247 257 251 248 220 219 210 183 175 175 179 185 186 182 181 184 188 194 197 197 195 197 200 204 208 216 224 226 215 228 214 214 215 234 240 250 248 250 265 274 277 275 260 251 257 272
237 239 232 229 236 230 248 221 212 163 176 187 191 191 193 191 187 189 189 192 199 202 200 200 201 204 207 212 216 223 228 219 221 217 215 219 232 237 250 262 255 254 257 255 261 269 266 261 263
219 229 227 202 221 214 240 226 166 140 182 189 191 194 194 192 195 198 196 198 204 208 205 205 208 206 211 216 220 224 228 225 223 223 216 218 234 241 252 265 269 262 255 244 240 247 256 256 267
212 222 221 185 204 218 232 236 159 70 235 193 168 182 190 186 199 205 206 205 208 212 211 209 216 214 215 218 219 229 230 232 234 231 233 226 232 241 246 262 273 271 262 254 259 237 257 269 282
213 222 218 210 178 217 228 239 239 7 3 43 92 146 174 185 196 208 215 215 213 214 216 217 216 223 224 225 229 234 237 236 245 252 255 256 250 249 252 256 259 265 265 261 261 265 249 272 275
264 238 221 201 155 224 225 237 258 326 340 51 76 108 143 167 178 198 210 220 220 216 219 221 224 223 226 230 231 233 236 244 259 273 275 271 266 262 255 262 261 255 255 259 259 253 246 245 254
235 234 228 194 193 237 220 226 218 9 44 48 65 91 136 164 177 186 192 205 214 217 221 225 226 230 230 230 233 235 233 235 252 278 286 283 277 269 260 255 262 259 256 255 257 253 270 272 252
222 231 229 224 202 229 248 236 200 154 135 106 87 78 69 74 146 171 188 200 209 214 222 231 236 238 240 238 230 215 204 206 215 233 242 261 280 281 275 268 264 265 260 258 256 251 252 262 259
216 230 253 247 243 239 230 258 209 165 161 128 95 81 70 56 53 48 49 165 210 230 246 262 271 271 267 246 239 234 231 229 224 217 217 218 236 274 280 274 269 264 258 256 256 253 255 256 258
265 181 244 252 256 261 241 251 249 173 187 137 94 76 68 58 52 43 34 36 33 26 39 57 60 57 52 25 325 266 256 251 240 225 219 214 206 243 286 278 269 263 259 255 256 269 258 250 255
225 219 236 246 252 248 246 249 256 214 191 129 93 78 70 66 63 55 49 48 44 39 45 57 70 64 54 42 25 336 301 280 252 229 214 206 191 162 287 290 276 267 261 260 262 264 257 250 252
221 230 234 229 225 239 234 242 250 83 77 76 84 78 74 71 66 58 50 45 48 50 45 48 63 65 54 42 26 355 337 322 285 242 215 195 173 149 137 295 285 275 268 267 268 263 263 255 252
228 236 243 256 255 248 192 238 215 101 104 107 102 92 80 72 63 55 47 39 36 43 48 60 72 76 65 56 40 14 7 12 18 13 86 125 113 117 132 288 295 292 286 282 277 272 265 261 260
243 246 263 272 281 274 243 225 143 151 157 137 117 98 79 70 62 52 43 35 31 34 42 52 78 81 68 54 40 35 34 41 48 60 74 80 85 99 97 9 314 304 298 294 289 280 280 275 268
259 220 199 226 247 250 257 248 235 182 184 159 125 99 82 74 68 59 50 40 36 35 43 54 66 70 61 51 36 38 40 47 50 56 61 64 72 73 76 19 317 301 296 292 289 283 283 287 282
206 216 224 224 240 258 267 258 38 250 183 163 133 102 78 63 57 49 47 44 44 46 47 50 58 60 56 49 46 44 51 61 67 67 67 68 64 61 58 21 310 294 290 291 287 288 292 285 291
265 252 239 244 248 252 276 281 78 80 122 140 125 104 73 48 46 39 34 35 38 41 46 50 48 46 43 46 56 61 64 70 77 76 70 69 67 57 44 7 312 293 293 291 288 287 292 293 296